DLH9001 KBOS-KJFK

Flight info

Callsign DLH9001
Flight time 0h 42m
Altitude 22000
Route SSOXS7 SSOXS BUZRD SEY PARCH4
Aircraft A346/H-SDE2E3FGHIJ3J4J5M1RWXY/LB1D1

Departure

Time 2026-05-06 19:09
Airport Boston Logan International Airport (KBOS)

Arrival

Time 2026-05-06 19:51
Airport John F. Kennedy International Airport (KJFK)
Time Latitude Longitude Altitude Speed Heading
2026-05-06 18:32 42.37095 -71.02152 34 ft 0 kts 148°
2026-05-06 18:56 42.37096 -71.02152 34 ft 1 kts 148°
2026-05-06 18:56 42.37117 -71.02170 33 ft 4 kts 148°
2026-05-06 18:56 42.37139 -71.02189 32 ft 3 kts 147°
2026-05-06 18:56 42.37153 -71.02205 31 ft 4 kts 115°
2026-05-06 18:57 42.37154 -71.02221 30 ft 4 kts 71°
2026-05-06 18:57 42.37142 -71.02249 31 ft 4 kts 51°
2026-05-06 18:57 42.37127 -71.02272 31 ft 1 kts 43°
2026-05-06 19:02 42.37129 -71.02269 38 ft 2 kts 43°
2026-05-06 19:03 42.37146 -71.02247 32 ft 0 kts 43°
2026-05-06 19:03 42.37168 -71.02221 34 ft 9 kts 40°
2026-05-06 19:03 42.37227 -71.02138 34 ft 15 kts 58°
2026-05-06 19:03 42.37237 -71.01982 34 ft 19 kts 77°
2026-05-06 19:04 42.37294 -71.01861 34 ft 15 kts 84°
2026-05-06 19:04 42.37224 -71.01728 34 ft 20 kts 137°
2026-05-06 19:04 42.37115 -71.01580 34 ft 24 kts 134°
2026-05-06 19:04 42.36989 -71.01412 34 ft 26 kts 136°
2026-05-06 19:05 42.36896 -71.01260 34 ft 15 kts 95°
2026-05-06 19:05 42.36959 -71.01139 32 ft 19 kts 36°
2026-05-06 19:05 42.37085 -71.01046 34 ft 23 kts 25°
2026-05-06 19:05 42.37184 -71.00983 34 ft 14 kts 26°
2026-05-06 19:06 42.37222 -71.00957 34 ft 0 kts 25°
2026-05-06 19:06 42.37229 -71.00953 34 ft 3 kts 25°
2026-05-06 19:06 42.37270 -71.00927 34 ft 11 kts 24°
2026-05-06 19:07 42.37372 -71.00871 34 ft 21 kts 18°
2026-05-06 19:07 42.37521 -71.00804 34 ft 24 kts 20°
2026-05-06 19:07 42.37684 -71.00724 34 ft 26 kts 19°
2026-05-06 19:07 42.37807 -71.00661 34 ft 17 kts 28°
2026-05-06 19:08 42.37820 -71.00517 34 ft 12 kts 115°
2026-05-06 19:08 42.37750 -71.00495 34 ft 13 kts 199°
2026-05-06 19:08 42.37716 -71.00511 34 ft 15 kts 199°
2026-05-06 19:08 42.37342 -71.00691 37 ft 97 kts 199°
2026-05-06 19:09 42.36497 -71.01095 83 ft 157 kts 198°
2026-05-06 19:09 42.35426 -71.01604 823 ft 161 kts 197°
2026-05-06 19:09 42.34361 -71.01568 1938 ft 158 kts 163°
2026-05-06 19:09 42.33451 -71.00595 2769 ft 176 kts 148°
2026-05-06 19:10 42.32602 -70.99312 3388 ft 195 kts 144°
2026-05-06 19:10 42.31702 -70.97820 3986 ft 214 kts 139°
2026-05-06 19:10 42.31137 -70.95781 4608 ft 251 kts 106°
2026-05-06 19:10 42.31297 -70.93284 4975 ft 285 kts 92°
2026-05-06 19:11 42.31074 -70.90601 5363 ft 288 kts 125°
2026-05-06 19:11 42.29843 -70.88659 6346 ft 261 kts 160°
2026-05-06 19:11 42.28195 -70.88121 7520 ft 236 kts 193°
2026-05-06 19:11 42.26757 -70.89016 8631 ft 230 kts 223°
2026-05-06 19:12 42.25736 -70.90717 9778 ft 232 kts 230°
2026-05-06 19:12 42.24688 -70.92338 10864 ft 233 kts 226°
2026-05-06 19:12 42.23507 -70.93952 11630 ft 249 kts 225°
2026-05-06 19:12 42.22186 -70.95611 12280 ft 268 kts 224°
2026-05-06 19:13 42.20735 -70.97335 12945 ft 287 kts 223°
2026-05-06 19:13 42.19158 -70.99133 13595 ft 306 kts 222°
2026-05-06 19:13 42.17496 -71.00977 14239 ft 320 kts 222°
2026-05-06 19:13 42.15734 -71.02897 15009 ft 328 kts 222°
2026-05-06 19:14 42.13928 -71.04840 15914 ft 334 kts 222°
2026-05-06 19:14 42.12108 -71.06789 16766 ft 341 kts 222°
2026-05-06 19:14 42.10226 -71.08790 17631 ft 348 kts 222°
2026-05-06 19:14 42.08294 -71.10833 18453 ft 355 kts 222°
2026-05-06 19:15 42.06332 -71.12903 19202 ft 361 kts 222°
2026-05-06 19:15 42.04336 -71.15012 19974 ft 366 kts 222°
2026-05-06 19:15 42.02316 -71.17149 20746 ft 372 kts 222°
2026-05-06 19:15 42.00259 -71.19332 21424 ft 377 kts 222°
2026-05-06 19:16 41.98217 -71.21505 21797 ft 381 kts 222°
2026-05-06 19:16 41.96133 -71.23728 21868 ft 382 kts 222°
2026-05-06 19:16 41.94051 -71.25946 21870 ft 382 kts 222°
2026-05-06 19:16 41.91958 -71.28180 21871 ft 382 kts 222°
2026-05-06 19:17 41.89859 -71.30383 21873 ft 382 kts 221°
2026-05-06 19:17 41.87747 -71.32562 21844 ft 382 kts 221°
2026-05-06 19:17 41.85664 -71.34709 21862 ft 383 kts 221°
2026-05-06 19:17 41.83550 -71.36890 21862 ft 383 kts 221°
2026-05-06 19:18 41.81427 -71.39082 21872 ft 383 kts 221°
2026-05-06 19:18 41.79319 -71.41261 21861 ft 381 kts 221°
2026-05-06 19:18 41.77209 -71.43436 21882 ft 381 kts 221°
2026-05-06 19:18 41.75124 -71.45590 21892 ft 382 kts 221°
2026-05-06 19:19 41.73011 -71.47773 21892 ft 383 kts 221°
2026-05-06 19:19 41.70899 -71.49952 21872 ft 383 kts 221°
2026-05-06 19:19 41.68789 -71.52126 21880 ft 383 kts 221°
2026-05-06 19:19 41.66665 -71.54314 21885 ft 383 kts 221°
2026-05-06 19:20 41.64547 -71.56493 21904 ft 383 kts 221°
2026-05-06 19:20 41.62454 -71.58646 21892 ft 383 kts 221°
2026-05-06 19:20 41.60336 -71.60821 21889 ft 383 kts 221°
2026-05-06 19:20 41.58222 -71.62991 21889 ft 383 kts 221°
2026-05-06 19:21 41.56104 -71.65163 21885 ft 383 kts 221°
2026-05-06 19:21 41.53989 -71.67330 21889 ft 383 kts 221°
2026-05-06 19:21 41.51899 -71.69468 21877 ft 383 kts 221°
2026-05-06 19:21 41.49776 -71.71640 21875 ft 383 kts 221°
2026-05-06 19:22 41.47652 -71.73811 21914 ft 383 kts 221°
2026-05-06 19:22 41.45532 -71.75977 21895 ft 383 kts 221°
2026-05-06 19:22 41.43411 -71.78141 21896 ft 383 kts 221°
2026-05-06 19:22 41.41294 -71.80299 21908 ft 383 kts 221°
2026-05-06 19:23 41.39170 -71.82464 21896 ft 383 kts 221°
2026-05-06 19:23 41.37068 -71.84602 21900 ft 383 kts 221°
2026-05-06 19:23 41.34947 -71.86760 21897 ft 383 kts 221°
2026-05-06 19:23 41.32827 -71.88914 21901 ft 383 kts 221°
2026-05-06 19:24 41.30710 -71.91064 21927 ft 383 kts 221°
2026-05-06 19:24 41.28583 -71.93222 21886 ft 382 kts 221°
2026-05-06 19:24 41.26467 -71.95367 21879 ft 382 kts 221°
2026-05-06 19:24 41.24379 -71.97482 21878 ft 382 kts 221°
2026-05-06 19:25 41.22264 -71.99627 21879 ft 382 kts 221°
2026-05-06 19:25 41.20151 -72.01765 21877 ft 382 kts 221°
2026-05-06 19:25 41.18037 -72.03898 21871 ft 382 kts 221°
2026-05-06 19:25 41.15910 -72.06042 21613 ft 380 kts 221°
2026-05-06 19:26 41.13802 -72.08167 21369 ft 379 kts 221°
2026-05-06 19:26 41.11829 -72.10397 21105 ft 375 kts 229°
2026-05-06 19:26 41.10219 -72.13087 20864 ft 371 kts 238°
2026-05-06 19:26 41.09021 -72.16114 20611 ft 369 kts 248°
2026-05-06 19:27 41.08213 -72.19131 20358 ft 366 kts 251°
2026-05-06 19:27 41.07411 -72.22298 19962 ft 365 kts 251°
2026-05-06 19:27 41.06610 -72.25490 19350 ft 362 kts 251°
2026-05-06 19:27 41.05820 -72.28660 18571 ft 357 kts 251°
2026-05-06 19:28 41.05053 -72.31738 17716 ft 353 kts 251°
2026-05-06 19:28 41.04284 -72.34820 16891 ft 346 kts 250°
2026-05-06 19:28 41.03534 -72.37831 16106 ft 340 kts 250°
2026-05-06 19:28 41.02806 -72.40744 15394 ft 333 kts 250°
2026-05-06 19:29 41.02089 -72.43618 14910 ft 321 kts 250°
2026-05-06 19:29 41.01396 -72.46391 14432 ft 311 kts 250°
2026-05-06 19:29 41.00730 -72.49058 14113 ft 297 kts 250°
2026-05-06 19:29 41.00095 -72.51594 13891 ft 282 kts 250°
2026-05-06 19:30 40.99493 -72.53992 13678 ft 274 kts 250°
2026-05-06 19:30 40.98899 -72.56360 13418 ft 267 kts 249°
2026-05-06 19:30 40.98320 -72.58665 13189 ft 260 kts 249°
2026-05-06 19:30 40.97755 -72.60912 12987 ft 254 kts 249°
2026-05-06 19:31 40.97194 -72.63138 12788 ft 252 kts 249°
2026-05-06 19:31 40.96644 -72.65318 12713 ft 252 kts 249°
2026-05-06 19:31 40.95527 -72.69738 12567 ft 252 kts 249°
2026-05-06 19:32 40.94972 -72.71935 12397 ft 248 kts 249°
2026-05-06 19:32 40.94424 -72.74107 11981 ft 249 kts 249°
2026-05-06 19:32 40.93882 -72.76249 11608 ft 247 kts 248°
2026-05-06 19:32 40.93275 -72.78360 11318 ft 242 kts 240°
2026-05-06 19:33 40.92313 -72.80178 11082 ft 240 kts 228°
2026-05-06 19:33 40.91071 -72.81620 10840 ft 241 kts 220°
2026-05-06 19:33 40.89720 -72.82951 10566 ft 242 kts 219°
2026-05-06 19:33 40.88358 -72.84277 10322 ft 242 kts 219°
2026-05-06 19:34 40.87021 -72.85571 10093 ft 240 kts 219°
2026-05-06 19:34 40.85677 -72.86870 9849 ft 238 kts 219°
2026-05-06 19:34 40.84337 -72.88162 9591 ft 237 kts 219°
2026-05-06 19:34 40.83002 -72.89446 9334 ft 236 kts 219°
2026-05-06 19:35 40.81673 -72.90724 9080 ft 235 kts 219°
2026-05-06 19:35 40.80349 -72.91994 9028 ft 235 kts 218°
2026-05-06 19:35 40.79464 -72.92842 9027 ft 234 kts 218°
2026-05-06 19:36 40.79019 -72.93267 9024 ft 234 kts 218°
2026-05-06 19:36 40.77701 -72.94528 8886 ft 230 kts 218°
2026-05-06 19:36 40.76397 -72.95775 8422 ft 233 kts 218°
2026-05-06 19:36 40.75094 -72.97021 8003 ft 235 kts 218°
2026-05-06 19:37 40.73766 -72.98291 7645 ft 234 kts 218°
2026-05-06 19:37 40.72444 -72.99554 7298 ft 233 kts 218°
2026-05-06 19:37 40.71130 -73.00808 6932 ft 232 kts 218°
2026-05-06 19:37 40.70268 -73.01640 6692 ft 230 kts 220°
2026-05-06 19:38 40.68995 -73.03852 6074 ft 233 kts 244°
2026-05-06 19:38 40.68634 -73.05957 5700 ft 238 kts 261°
2026-05-06 19:38 40.68615 -73.08133 5463 ft 235 kts 263°
2026-05-06 19:38 40.68609 -73.10260 5145 ft 233 kts 263°
2026-05-06 19:39 40.68608 -73.12396 5011 ft 233 kts 264°
2026-05-06 19:39 40.68612 -73.14542 5001 ft 233 kts 264°
2026-05-06 19:39 40.68619 -73.16685 4995 ft 234 kts 264°
2026-05-06 19:39 40.68628 -73.18834 4990 ft 234 kts 264°
2026-05-06 19:40 40.68637 -73.20966 4991 ft 234 kts 264°
2026-05-06 19:40 40.68649 -73.23084 4813 ft 230 kts 264°
2026-05-06 19:40 40.68658 -73.25207 4503 ft 227 kts 264°
2026-05-06 19:40 40.68667 -73.27262 4339 ft 219 kts 264°
2026-05-06 19:41 40.68902 -73.29242 4139 ft 226 kts 285°
2026-05-06 19:41 40.69721 -73.31049 3993 ft 228 kts 296°
2026-05-06 19:41 40.70613 -73.32734 3991 ft 222 kts 297°
2026-05-06 19:41 40.71510 -73.34385 3991 ft 219 kts 297°
2026-05-06 19:42 40.72099 -73.35464 3984 ft 218 kts 297°
2026-05-06 19:42 40.72988 -73.37096 3992 ft 218 kts 297°
2026-05-06 19:42 40.73877 -73.38724 3987 ft 218 kts 297°
2026-05-06 19:42 40.74765 -73.40349 3989 ft 215 kts 297°
2026-05-06 19:43 40.75619 -73.41885 3983 ft 201 kts 297°
2026-05-06 19:43 40.76451 -73.43358 4043 ft 198 kts 297°
2026-05-06 19:43 40.77268 -73.44801 4005 ft 197 kts 297°
2026-05-06 19:43 40.78094 -73.46257 4005 ft 197 kts 297°
2026-05-06 19:44 40.78917 -73.47710 4013 ft 197 kts 297°
2026-05-06 19:44 40.79716 -73.49131 3845 ft 192 kts 297°
2026-05-06 19:44 40.80512 -73.50565 3459 ft 194 kts 297°
2026-05-06 19:44 40.81307 -73.52007 3115 ft 193 kts 297°
2026-05-06 19:45 40.81992 -73.53490 2754 ft 183 kts 280°
2026-05-06 19:45 40.81914 -73.55082 2394 ft 174 kts 248°
2026-05-06 19:45 40.81333 -73.56486 2088 ft 174 kts 238°
2026-05-06 19:45 40.80686 -73.57842 1993 ft 177 kts 237°
2026-05-06 19:46 40.80029 -73.59202 1981 ft 173 kts 237°
2026-05-06 19:46 40.79396 -73.60543 1984 ft 171 kts 237°
2026-05-06 19:46 40.78784 -73.61841 1973 ft 157 kts 237°
2026-05-06 19:46 40.78224 -73.63030 1961 ft 150 kts 237°
2026-05-06 19:47 40.77677 -73.64212 1983 ft 151 kts 234°
2026-05-06 19:47 40.76991 -73.65251 2001 ft 150 kts 225°
2026-05-06 19:47 40.76170 -73.66136 1985 ft 158 kts 219°
2026-05-06 19:47 40.75263 -73.66979 1989 ft 160 kts 217°
2026-05-06 19:48 40.74343 -73.67765 1975 ft 149 kts 215°
2026-05-06 19:48 40.73476 -73.68461 1969 ft 143 kts 215°
2026-05-06 19:48 40.72625 -73.69132 1901 ft 141 kts 215°
2026-05-06 19:48 40.71794 -73.69784 1720 ft 140 kts 214°
2026-05-06 19:49 40.70949 -73.70446 1511 ft 142 kts 214°
2026-05-06 19:49 40.70102 -73.71109 1328 ft 142 kts 213°
2026-05-06 19:49 40.69271 -73.71758 1108 ft 135 kts 213°
2026-05-06 19:49 40.68459 -73.72395 958 ft 135 kts 213°
2026-05-06 19:50 40.67662 -73.73024 771 ft 135 kts 211°
2026-05-06 19:50 40.66850 -73.73661 606 ft 134 kts 207°
2026-05-06 19:50 40.66050 -73.74278 395 ft 132 kts 208°
2026-05-06 19:50 40.65253 -73.74901 239 ft 134 kts 212°
2026-05-06 19:51 40.64462 -73.75535 83 ft 131 kts 209°
2026-05-06 19:51 40.63751 -73.76090 29 ft 95 kts 211°
2026-05-06 19:51 40.63346 -73.76407 30 ft 43 kts 210°
2026-05-06 19:51 40.63146 -73.76563 29 ft 28 kts 214°
2026-05-06 19:52 40.62997 -73.76745 29 ft 30 kts 234°
2026-05-06 19:52 40.62929 -73.76929 30 ft 20 kts 271°
2026-05-06 19:52 40.62951 -73.77015 30 ft 3 kts 298°
2026-05-06 19:52 40.62968 -73.77057 31 ft 7 kts 300°
2026-05-06 19:53 40.62989 -73.77104 32 ft 7 kts 300°
2026-05-06 19:53 40.63012 -73.77155 34 ft 0 kts 301°
2026-05-06 19:53 40.63014 -73.77161 34 ft 2 kts 301°
2026-05-06 19:53 40.63018 -73.77170 34 ft 1 kts 301°
2026-05-06 19:54 40.63025 -73.77184 35 ft 3 kts 301°
2026-05-06 19:54 40.63041 -73.77220 35 ft 6 kts 301°
2026-05-06 19:54 40.63055 -73.77249 36 ft 1 kts 301°
2026-05-06 19:54 40.63063 -73.77266 34 ft 4 kts 301°
2026-05-06 19:55 40.63086 -73.77316 36 ft 8 kts 301°
2026-05-06 19:55 40.63123 -73.77397 37 ft 10 kts 301°
2026-05-06 19:55 40.63154 -73.77465 38 ft 10 kts 301°
2026-05-06 19:55 40.63176 -73.77517 38 ft 6 kts 300°
2026-05-06 19:56 40.63191 -73.77551 38 ft 1 kts 300°
2026-05-06 19:56 40.63200 -73.77572 38 ft 2 kts 301°
2026-05-06 19:56 40.63206 -73.77584 38 ft 1 kts 301°
2026-05-06 19:56 40.63207 -73.77586 38 ft 0 kts 301°